TimeEST,TemperatureF,Dew PointF,Humidity,Sea Level PressureIn,VisibilityMPH,Wind Direction,Wind SpeedMPH,Gust SpeedMPH,PrecipitationIn,Events,Conditions,WindDirDegrees,DateUTC
12:53 AM,46.0,37.9,73,29.90,10.0,West,6.9,-,N/A,,Overcast,270,2012-11-07 05:53:00
1:53 AM,44.1,37.0,76,29.90,10.0,West,5.8,-,N/A,,Overcast,280,2012-11-07 06:53:00
2:53 AM,42.1,37.9,85,29.89,9.0,West,3.5,-,0.00,Rain,Light Rain,260,2012-11-07 07:53:00
3:53 AM,42.1,39.0,89,29.88,7.0,Calm,Calm,-,0.00,,Overcast,0,2012-11-07 08:53:00
4:46 AM,41.0,39.2,93,29.88,8.0,Calm,Calm,-,N/A,,Overcast,0,2012-11-07 09:46:00
4:53 AM,41.0,39.0,93,29.88,7.0,Calm,Calm,-,N/A,,Overcast,0,2012-11-07 09:53:00
5:30 AM,41.0,39.2,93,29.88,5.0,West,3.5,-,0.00,Rain,Light Rain,260,2012-11-07 10:30:00
5:53 AM,41.0,39.0,93,29.89,5.0,Calm,Calm,-,0.01,Rain,Light Rain,0,2012-11-07 10:53:00
6:00 AM,41.0,39.2,93,29.88,4.0,Calm,Calm,-,0.00,Rain,Light Rain,0,2012-11-07 11:00:00
6:28 AM,41.0,39.2,93,29.89,5.0,Calm,Calm,-,0.01,Rain,Light Rain,0,2012-11-07 11:28:00
6:53 AM,41.0,39.0,93,29.89,4.0,Calm,Calm,-,0.02,Rain,Light Rain,0,2012-11-07 11:53:00
7:18 AM,41.0,39.2,93,29.89,4.0,Calm,Calm,-,0.01,Rain,Light Rain,0,2012-11-07 12:18:00
7:25 AM,41.0,39.2,93,29.90,3.0,Calm,Calm,-,0.01,Rain,Light Rain,0,2012-11-07 12:25:00
7:32 AM,41.0,39.2,93,29.90,2.5,Calm,Calm,-,0.01,Rain,Light Rain,0,2012-11-07 12:32:00
7:45 AM,41.0,39.2,93,29.90,2.5,Calm,Calm,-,0.02,Rain,Light Rain,0,2012-11-07 12:45:00
7:53 AM,41.0,39.9,96,29.91,2.5,Calm,Calm,-,0.02,Rain,Light Rain,0,2012-11-07 12:53:00
8:22 AM,41.0,39.2,93,29.91,3.0,Calm,Calm,-,0.01,Rain,Light Rain,0,2012-11-07 13:22:00
8:53 AM,42.1,39.9,92,29.93,4.0,Calm,Calm,-,0.02,Rain,Light Rain,0,2012-11-07 13:53:00
9:03 AM,42.8,39.2,87,29.92,7.0,Calm,Calm,-,0.00,Rain,Light Rain,0,2012-11-07 14:03:00
9:43 AM,42.8,39.2,87,29.92,8.0,North,3.5,-,0.00,Rain,Light Rain,350,2012-11-07 14:43:00
9:53 AM,43.0,39.0,86,29.93,10.0,NNE,3.5,-,0.00,,Overcast,20,2012-11-07 14:53:00
10:10 AM,42.8,39.2,87,29.93,10.0,Calm,Calm,-,N/A,,Overcast,0,2012-11-07 15:10:00
10:37 AM,42.8,37.4,81,29.94,10.0,Calm,Calm,-,0.00,Rain,Light Rain,0,2012-11-07 15:37:00
10:45 AM,44.6,39.2,81,29.94,10.0,North,3.5,-,0.00,Rain,Light Rain,350,2012-11-07 15:45:00
10:53 AM,44.1,39.0,82,29.94,10.0,North,3.5,-,0.00,Rain,Light Rain,350,2012-11-07 15:53:00
11:03 AM,44.6,39.2,81,29.94,9.0,North,3.5,-,0.00,Rain,Light Rain,350,2012-11-07 16:03:00
11:53 AM,44.1,39.9,85,29.95,9.0,NE,5.8,-,0.00,,Overcast,40,2012-11-07 16:53:00
12:53 PM,44.1,39.9,85,29.94,10.0,North,4.6,-,0.00,,Overcast,360,2012-11-07 17:53:00
1:53 PM,44.1,37.9,79,29.93,10.0,NNW,6.9,-,N/A,,Overcast,330,2012-11-07 18:53:00
2:53 PM,45.0,39.0,80,29.94,10.0,North,4.6,-,N/A,,Overcast,350,2012-11-07 19:53:00
3:53 PM,45.0,39.0,80,29.96,10.0,NNW,3.5,-,N/A,,Overcast,340,2012-11-07 20:53:00
4:53 PM,45.0,37.9,76,29.99,10.0,NW,5.8,-,N/A,,Overcast,310,2012-11-07 21:53:00
5:11 PM,44.6,39.2,81,29.98,10.0,West,8.1,-,N/A,,Overcast,280,2012-11-07 22:11:00
5:35 PM,44.6,39.2,81,30.00,10.0,NW,5.8,-,N/A,,Overcast,310,2012-11-07 22:35:00
5:53 PM,44.1,37.9,79,30.01,10.0,NW,5.8,-,N/A,,Overcast,320,2012-11-07 22:53:00
6:10 PM,44.6,37.4,76,30.01,10.0,WNW,5.8,-,N/A,,Overcast,300,2012-11-07 23:10:00
6:53 PM,44.1,39.0,82,30.04,10.0,NW,4.6,-,N/A,,Overcast,310,2012-11-07 23:53:00
7:53 PM,43.0,39.0,86,30.06,10.0,NW,5.8,-,N/A,,Overcast,310,2012-11-08 00:53:00
8:53 PM,42.1,37.9,85,30.07,9.0,Calm,Calm,-,N/A,,Scattered Clouds,0,2012-11-08 01:53:00
9:53 PM,39.9,37.9,93,30.08,7.0,Calm,Calm,-,N/A,,Clear,0,2012-11-08 02:53:00
10:53 PM,39.0,36.0,89,30.09,5.0,Calm,Calm,-,N/A,,Clear,0,2012-11-08 03:53:00
11:53 PM,37.9,36.0,93,30.09,4.0,Calm,Calm,-,N/A,,Clear,0,2012-11-08 04:53:00